(°C)
10°
11°
13°
(°C)
-1°
-1°
JJV
JJV
JJV
J
J
J
J
(km/h)
8-23
9-23
10-26
12-28
14-32
16-34
16-32
(mm)
0
0
0
0
0
0
0
(%)
0
0
0
0
0
0
0

Výška Slnka nad obzorom

/ 1.4°
sun-icon
UV 1
08:08
18:20
Zmenšujúci sa polmesiac (190°)
18:42
08:35

Správy METAR pre lokalitu 55.03°S 82.6°V (UNNT)

Čas Podmienky Teplota/
Rosný bod
Vietor Viditeľnosť Počasie Oblaky Tlak Zmeniť Nespracované
VFR 2°C / -2°C 140º 6kt >10km - Clouds and Visibility OK 1011 No Significant change. Runway 07: Clear and dry, 51-100% contamination with <1mm, friction coefficient 0.70. Runway 16: Clear and dry, 51-100% contamination with <1mm, friction coefficient 0.70. UNNT 210100Z 14003MPS CAVOK 02/M02 Q1011 R07/090070 R16/090070 NOSIG RMK QFE748/0998
VFR 3°C / -1°C 130º 6kt >10km - Clouds and Visibility OK 1011 No Significant change. Runway 07: Clear and dry, 51-100% contamination with <1mm, friction coefficient 0.70. Runway 16: Clear and dry, 51-100% contamination with <1mm, friction coefficient 0.70. UNNT 210030Z 13003MPS CAVOK 03/M01 Q1011 R07/090070 R16/090070 NOSIG RMK QFE748/0998
VFR 3°C / -1°C 140º 8kt >10km - Clouds and Visibility OK 1011 No Significant change. Runway 07: Clear and dry, 51-100% contamination with <1mm, friction coefficient 0.70. Runway 16: Clear and dry, 51-100% contamination with <1mm, friction coefficient 0.70. UNNT 210000Z 14004MPS CAVOK 03/M01 Q1011 R07/090070 R16/090070 NOSIG RMK QFE748/0998
VFR 3°C / -1°C 130º 6kt >10km - Clouds and Visibility OK 1011 No Significant change. Runway 07: Clear and dry, 51-100% contamination with <1mm, friction coefficient 0.70. Runway 16: Clear and dry, 51-100% contamination with <1mm, friction coefficient 0.70. UNNT 202330Z 13003MPS CAVOK 03/M01 Q1011 R07/090070 R16/090070 NOSIG RMK QFE749/0998
VFR 2°C / -1°C 100º 6kt >10km - Clouds and Visibility OK 1011 No Significant change. Runway 07: Clear and dry, 51-100% contamination with <1mm, friction coefficient 0.70. Runway 16: Clear and dry, 51-100% contamination with <1mm, friction coefficient 0.70. UNNT 202300Z 10003MPS CAVOK 02/M01 Q1011 R07/090070 R16/090070 NOSIG RMK QFE749/0998
VFR 2°C / -1°C 150º 8kt >10km - Clouds and Visibility OK 1012 No Significant change. Runway 07: Clear and dry, 51-100% contamination with <1mm, friction coefficient 0.70. Runway 16: Clear and dry, 51-100% contamination with <1mm, friction coefficient 0.70. UNNT 202230Z 15004MPS CAVOK 02/M01 Q1012 R07/090070 R16/090070 NOSIG RMK QFE749/0999
VFR 2°C / 0°C 140º 6kt >10km - Clouds and Visibility OK 1012 No Significant change. Runway 07: Clear and dry, 51-100% contamination with <1mm, friction coefficient 0.70. Runway 16: Clear and dry, 51-100% contamination with <1mm, friction coefficient 0.70. UNNT 202200Z 14003MPS CAVOK 02/M00 Q1012 R07/090070 R16/090070 NOSIG RMK QFE749/0999
VFR 0°C / -2°C 130º 4kt >10km - Clouds and Visibility OK 1012 No Significant change. Runway 07: Clear and dry, 51-100% contamination with <1mm, friction coefficient 0.70. Runway 16: Clear and dry, 51-100% contamination with <1mm, friction coefficient 0.70. UNNT 202130Z 13002MPS CAVOK 00/M02 Q1012 R07/090070 R16/090070 NOSIG RMK QFE749/0999
VFR 1°C / -1°C 150º 4kt >10km - Clouds and Visibility OK 1012 No Significant change. Runway 07: Clear and dry, 51-100% contamination with <1mm, friction coefficient 0.70. Runway 16: Clear and dry, 51-100% contamination with <1mm, friction coefficient 0.70. UNNT 202100Z 15002MPS CAVOK 01/M01 Q1012 R07/090070 R16/090070 NOSIG RMK QFE749/0999
VFR 1°C / -2°C 150º 6kt >10km - Clouds and Visibility OK 1012 No Significant change. Runway 07: Clear and dry, 51-100% contamination with <1mm, friction coefficient 0.70. Runway 16: Clear and dry, 51-100% contamination with <1mm, friction coefficient 0.70. UNNT 202030Z 15003MPS CAVOK 01/M02 Q1012 R07/090070 R16/090070 NOSIG RMK QFE749/0999
VFR 1°C / -1°C 130º 4kt >10km - Clouds and Visibility OK 1012 No Significant change. Runway 07: Clear and dry, 51-100% contamination with <1mm, friction coefficient 0.70. Runway 16: Clear and dry, 51-100% contamination with <1mm, friction coefficient 0.70. UNNT 202000Z 13002MPS CAVOK 01/M01 Q1012 R07/090070 R16/090070 NOSIG RMK QFE749/0999
VFR 3°C / -1°C 160º 2kt >10km - Clouds and Visibility OK 1012 No Significant change. Runway 07: Clear and dry, 51-100% contamination with <1mm, friction coefficient 0.70. Runway 16: Clear and dry, 51-100% contamination with <1mm, friction coefficient 0.70. UNNT 201930Z 16001MPS CAVOK 03/M01 Q1012 R07/090070 R16/090070 NOSIG RMK QFE749/0999
VFR 3°C / -1°C 170º 4kt >10km - Clouds and Visibility OK 1013 No Significant change. Runway 07: Clear and dry, 51-100% contamination with <1mm, friction coefficient 0.70. Runway 16: Clear and dry, 51-100% contamination with <1mm, friction coefficient 0.70. UNNT 201900Z 17002MPS CAVOK 03/M01 Q1013 R07/090070 R16/090070 NOSIG RMK QFE749/0999
VFR 5°C / 0°C 170º 6kt >10km - Clouds and Visibility OK 1013 No Significant change. Runway 07: Clear and dry, 51-100% contamination with <1mm, friction coefficient 0.70. Runway 16: Clear and dry, 51-100% contamination with <1mm, friction coefficient 0.70. UNNT 201830Z 17003MPS CAVOK 05/00 Q1013 R07/090070 R16/090070 NOSIG RMK QFE749/0999
VFR 4°C / -1°C 160º 6kt >10km - Clouds and Visibility OK 1013 No Significant change. Runway 07: Clear and dry, 51-100% contamination with <1mm, friction coefficient 0.70. Runway 16: Clear and dry, 51-100% contamination with <1mm, friction coefficient 0.70. UNNT 201800Z 16003MPS CAVOK 04/M01 Q1013 R07/090070 R16/090070 NOSIG RMK QFE749/0999
VFR 4°C / 0°C 160º 6kt >10km - Clouds and Visibility OK 1013 No Significant change. Runway 25: Clear and dry, 51-100% contamination with <1mm, friction coefficient 0.70. Runway 16: Clear and dry, 51-100% contamination with <1mm, friction coefficient 0.70. UNNT 201730Z 16003MPS CAVOK 04/M00 Q1013 R25/090070 R16/090070 NOSIG RMK QFE750/1000
VFR 5°C / 0°C 160º 8kt >10km - Clouds and Visibility OK 1013 No Significant change. Runway 25: Clear and dry, 51-100% contamination with <1mm, friction coefficient 0.70. Runway 16: Clear and dry, 51-100% contamination with <1mm, friction coefficient 0.70. UNNT 201700Z 16004MPS CAVOK 05/M00 Q1013 R25/090070 R16/090070 NOSIG RMK QFE750/1000
VFR 6°C / 0°C 160º 8kt >10km - Clouds and Visibility OK 1013 No Significant change. Runway 25: Clear and dry, 51-100% contamination with <1mm, friction coefficient 0.70. Runway 16: Clear and dry, 51-100% contamination with <1mm, friction coefficient 0.70. UNNT 201630Z 16004MPS CAVOK 06/M00 Q1013 R25/090070 R16/090070 NOSIG RMK QFE750/1000
VFR 6°C / 0°C 160º 8kt >10km - Clouds and Visibility OK 1013 No Significant change. Runway 25: Clear and dry, 51-100% contamination with <1mm, friction coefficient 0.70. Runway 16: Clear and dry, 51-100% contamination with <1mm, friction coefficient 0.70. UNNT 201600Z 16004MPS CAVOK 06/M00 Q1013 R25/090070 R16/090070 NOSIG RMK QFE750/1000
VFR 7°C / 0°C 160º 10kt >10km - Clouds and Visibility OK 1013 No Significant change. Runway 25: Clear and dry, 51-100% contamination with <1mm, friction coefficient 0.70. Runway 16: Clear and dry, 51-100% contamination with <1mm, friction coefficient 0.70. UNNT 201530Z 16005MPS CAVOK 07/M00 Q1013 R25/090070 R16/090070 NOSIG RMK QFE750/1000
VFR 8°C / 0°C 160º 10kt >10km - Clouds and Visibility OK 1014 No Significant change. Runway 25: Clear and dry, 51-100% contamination with <1mm, friction coefficient 0.70. Runway 16: Clear and dry, 51-100% contamination with <1mm, friction coefficient 0.70. UNNT 201500Z 16005MPS CAVOK 08/00 Q1014 R25/090070 R16/090070 NOSIG RMK QFE750/1000
VFR 7°C / 0°C 160º 8kt >10km - Clouds and Visibility OK 1014 No Significant change. Runway 25: Clear and dry, 51-100% contamination with <1mm, friction coefficient 0.70. Runway 16: Clear and dry, 51-100% contamination with <1mm, friction coefficient 0.70. UNNT 201430Z 16004MPS CAVOK 07/M00 Q1014 R25/090070 R16/090070 NOSIG RMK QFE750/1000
VFR 7°C / -1°C 160º 8kt >10km - Clouds and Visibility OK 1014 No Significant change. Runway 25: Clear and dry, 51-100% contamination with <1mm, friction coefficient 0.70. Runway 16: Clear and dry, 51-100% contamination with <1mm, friction coefficient 0.70. UNNT 201400Z 16004MPS CAVOK 07/M01 Q1014 R25/090070 R16/090070 NOSIG RMK QFE750/1001
VFR 7°C / -2°C 160º 8kt >10km - Clouds and Visibility OK 1014 No Significant change. Runway 25: Clear and dry, 51-100% contamination with <1mm, friction coefficient 0.70. Runway 16: Clear and dry, 51-100% contamination with <1mm, friction coefficient 0.70. UNNT 201330Z 16004MPS CAVOK 07/M02 Q1014 R25/090070 R16/090070 NOSIG RMK QFE750/1001

VFR

2°C / -2°C

[Viac]
Vietor 140º 6kt
Viditeľnosť >10km
Počasie -
Oblaky Clouds and Visibility OK
Tlak 1011
Zmeniť No Significant change. Runway 07: Clear and dry, 51-100% contamination with <1mm, friction coefficient 0.70. Runway 16: Clear and dry, 51-100% contamination with <1mm, friction coefficient 0.70.
Nespracované UNNT 210100Z 14003MPS CAVOK 02/M02 Q1011 R07/090070 R16/090070 NOSIG RMK QFE748/0998

VFR

3°C / -1°C

[Viac]
Vietor 130º 6kt
Viditeľnosť >10km
Počasie -
Oblaky Clouds and Visibility OK
Tlak 1011
Zmeniť No Significant change. Runway 07: Clear and dry, 51-100% contamination with <1mm, friction coefficient 0.70. Runway 16: Clear and dry, 51-100% contamination with <1mm, friction coefficient 0.70.
Nespracované UNNT 210030Z 13003MPS CAVOK 03/M01 Q1011 R07/090070 R16/090070 NOSIG RMK QFE748/0998

VFR

3°C / -1°C

[Viac]
Vietor 140º 8kt
Viditeľnosť >10km
Počasie -
Oblaky Clouds and Visibility OK
Tlak 1011
Zmeniť No Significant change. Runway 07: Clear and dry, 51-100% contamination with <1mm, friction coefficient 0.70. Runway 16: Clear and dry, 51-100% contamination with <1mm, friction coefficient 0.70.
Nespracované UNNT 210000Z 14004MPS CAVOK 03/M01 Q1011 R07/090070 R16/090070 NOSIG RMK QFE748/0998

VFR

3°C / -1°C

[Viac]
Vietor 130º 6kt
Viditeľnosť >10km
Počasie -
Oblaky Clouds and Visibility OK
Tlak 1011
Zmeniť No Significant change. Runway 07: Clear and dry, 51-100% contamination with <1mm, friction coefficient 0.70. Runway 16: Clear and dry, 51-100% contamination with <1mm, friction coefficient 0.70.
Nespracované UNNT 202330Z 13003MPS CAVOK 03/M01 Q1011 R07/090070 R16/090070 NOSIG RMK QFE749/0998

VFR

2°C / -1°C

[Viac]
Vietor 100º 6kt
Viditeľnosť >10km
Počasie -
Oblaky Clouds and Visibility OK
Tlak 1011
Zmeniť No Significant change. Runway 07: Clear and dry, 51-100% contamination with <1mm, friction coefficient 0.70. Runway 16: Clear and dry, 51-100% contamination with <1mm, friction coefficient 0.70.
Nespracované UNNT 202300Z 10003MPS CAVOK 02/M01 Q1011 R07/090070 R16/090070 NOSIG RMK QFE749/0998

VFR

2°C / -1°C

[Viac]
Vietor 150º 8kt
Viditeľnosť >10km
Počasie -
Oblaky Clouds and Visibility OK
Tlak 1012
Zmeniť No Significant change. Runway 07: Clear and dry, 51-100% contamination with <1mm, friction coefficient 0.70. Runway 16: Clear and dry, 51-100% contamination with <1mm, friction coefficient 0.70.
Nespracované UNNT 202230Z 15004MPS CAVOK 02/M01 Q1012 R07/090070 R16/090070 NOSIG RMK QFE749/0999

VFR

2°C / 0°C

[Viac]
Vietor 140º 6kt
Viditeľnosť >10km
Počasie -
Oblaky Clouds and Visibility OK
Tlak 1012
Zmeniť No Significant change. Runway 07: Clear and dry, 51-100% contamination with <1mm, friction coefficient 0.70. Runway 16: Clear and dry, 51-100% contamination with <1mm, friction coefficient 0.70.
Nespracované UNNT 202200Z 14003MPS CAVOK 02/M00 Q1012 R07/090070 R16/090070 NOSIG RMK QFE749/0999

VFR

0°C / -2°C

[Viac]
Vietor 130º 4kt
Viditeľnosť >10km
Počasie -
Oblaky Clouds and Visibility OK
Tlak 1012
Zmeniť No Significant change. Runway 07: Clear and dry, 51-100% contamination with <1mm, friction coefficient 0.70. Runway 16: Clear and dry, 51-100% contamination with <1mm, friction coefficient 0.70.
Nespracované UNNT 202130Z 13002MPS CAVOK 00/M02 Q1012 R07/090070 R16/090070 NOSIG RMK QFE749/0999

VFR

1°C / -1°C

[Viac]
Vietor 150º 4kt
Viditeľnosť >10km
Počasie -
Oblaky Clouds and Visibility OK
Tlak 1012
Zmeniť No Significant change. Runway 07: Clear and dry, 51-100% contamination with <1mm, friction coefficient 0.70. Runway 16: Clear and dry, 51-100% contamination with <1mm, friction coefficient 0.70.
Nespracované UNNT 202100Z 15002MPS CAVOK 01/M01 Q1012 R07/090070 R16/090070 NOSIG RMK QFE749/0999

VFR

1°C / -2°C

[Viac]
Vietor 150º 6kt
Viditeľnosť >10km
Počasie -
Oblaky Clouds and Visibility OK
Tlak 1012
Zmeniť No Significant change. Runway 07: Clear and dry, 51-100% contamination with <1mm, friction coefficient 0.70. Runway 16: Clear and dry, 51-100% contamination with <1mm, friction coefficient 0.70.
Nespracované UNNT 202030Z 15003MPS CAVOK 01/M02 Q1012 R07/090070 R16/090070 NOSIG RMK QFE749/0999

VFR

1°C / -1°C

[Viac]
Vietor 130º 4kt
Viditeľnosť >10km
Počasie -
Oblaky Clouds and Visibility OK
Tlak 1012
Zmeniť No Significant change. Runway 07: Clear and dry, 51-100% contamination with <1mm, friction coefficient 0.70. Runway 16: Clear and dry, 51-100% contamination with <1mm, friction coefficient 0.70.
Nespracované UNNT 202000Z 13002MPS CAVOK 01/M01 Q1012 R07/090070 R16/090070 NOSIG RMK QFE749/0999

VFR

3°C / -1°C

[Viac]
Vietor 160º 2kt
Viditeľnosť >10km
Počasie -
Oblaky Clouds and Visibility OK
Tlak 1012
Zmeniť No Significant change. Runway 07: Clear and dry, 51-100% contamination with <1mm, friction coefficient 0.70. Runway 16: Clear and dry, 51-100% contamination with <1mm, friction coefficient 0.70.
Nespracované UNNT 201930Z 16001MPS CAVOK 03/M01 Q1012 R07/090070 R16/090070 NOSIG RMK QFE749/0999

VFR

3°C / -1°C

[Viac]
Vietor 170º 4kt
Viditeľnosť >10km
Počasie -
Oblaky Clouds and Visibility OK
Tlak 1013
Zmeniť No Significant change. Runway 07: Clear and dry, 51-100% contamination with <1mm, friction coefficient 0.70. Runway 16: Clear and dry, 51-100% contamination with <1mm, friction coefficient 0.70.
Nespracované UNNT 201900Z 17002MPS CAVOK 03/M01 Q1013 R07/090070 R16/090070 NOSIG RMK QFE749/0999

VFR

5°C / 0°C

[Viac]
Vietor 170º 6kt
Viditeľnosť >10km
Počasie -
Oblaky Clouds and Visibility OK
Tlak 1013
Zmeniť No Significant change. Runway 07: Clear and dry, 51-100% contamination with <1mm, friction coefficient 0.70. Runway 16: Clear and dry, 51-100% contamination with <1mm, friction coefficient 0.70.
Nespracované UNNT 201830Z 17003MPS CAVOK 05/00 Q1013 R07/090070 R16/090070 NOSIG RMK QFE749/0999

VFR

4°C / -1°C

[Viac]
Vietor 160º 6kt
Viditeľnosť >10km
Počasie -
Oblaky Clouds and Visibility OK
Tlak 1013
Zmeniť No Significant change. Runway 07: Clear and dry, 51-100% contamination with <1mm, friction coefficient 0.70. Runway 16: Clear and dry, 51-100% contamination with <1mm, friction coefficient 0.70.
Nespracované UNNT 201800Z 16003MPS CAVOK 04/M01 Q1013 R07/090070 R16/090070 NOSIG RMK QFE749/0999

VFR

4°C / 0°C

[Viac]
Vietor 160º 6kt
Viditeľnosť >10km
Počasie -
Oblaky Clouds and Visibility OK
Tlak 1013
Zmeniť No Significant change. Runway 25: Clear and dry, 51-100% contamination with <1mm, friction coefficient 0.70. Runway 16: Clear and dry, 51-100% contamination with <1mm, friction coefficient 0.70.
Nespracované UNNT 201730Z 16003MPS CAVOK 04/M00 Q1013 R25/090070 R16/090070 NOSIG RMK QFE750/1000

VFR

5°C / 0°C

[Viac]
Vietor 160º 8kt
Viditeľnosť >10km
Počasie -
Oblaky Clouds and Visibility OK
Tlak 1013
Zmeniť No Significant change. Runway 25: Clear and dry, 51-100% contamination with <1mm, friction coefficient 0.70. Runway 16: Clear and dry, 51-100% contamination with <1mm, friction coefficient 0.70.
Nespracované UNNT 201700Z 16004MPS CAVOK 05/M00 Q1013 R25/090070 R16/090070 NOSIG RMK QFE750/1000

VFR

6°C / 0°C

[Viac]
Vietor 160º 8kt
Viditeľnosť >10km
Počasie -
Oblaky Clouds and Visibility OK
Tlak 1013
Zmeniť No Significant change. Runway 25: Clear and dry, 51-100% contamination with <1mm, friction coefficient 0.70. Runway 16: Clear and dry, 51-100% contamination with <1mm, friction coefficient 0.70.
Nespracované UNNT 201630Z 16004MPS CAVOK 06/M00 Q1013 R25/090070 R16/090070 NOSIG RMK QFE750/1000

VFR

6°C / 0°C

[Viac]
Vietor 160º 8kt
Viditeľnosť >10km
Počasie -
Oblaky Clouds and Visibility OK
Tlak 1013
Zmeniť No Significant change. Runway 25: Clear and dry, 51-100% contamination with <1mm, friction coefficient 0.70. Runway 16: Clear and dry, 51-100% contamination with <1mm, friction coefficient 0.70.
Nespracované UNNT 201600Z 16004MPS CAVOK 06/M00 Q1013 R25/090070 R16/090070 NOSIG RMK QFE750/1000

VFR

7°C / 0°C

[Viac]
Vietor 160º 10kt
Viditeľnosť >10km
Počasie -
Oblaky Clouds and Visibility OK
Tlak 1013
Zmeniť No Significant change. Runway 25: Clear and dry, 51-100% contamination with <1mm, friction coefficient 0.70. Runway 16: Clear and dry, 51-100% contamination with <1mm, friction coefficient 0.70.
Nespracované UNNT 201530Z 16005MPS CAVOK 07/M00 Q1013 R25/090070 R16/090070 NOSIG RMK QFE750/1000

VFR

8°C / 0°C

[Viac]
Vietor 160º 10kt
Viditeľnosť >10km
Počasie -
Oblaky Clouds and Visibility OK
Tlak 1014
Zmeniť No Significant change. Runway 25: Clear and dry, 51-100% contamination with <1mm, friction coefficient 0.70. Runway 16: Clear and dry, 51-100% contamination with <1mm, friction coefficient 0.70.
Nespracované UNNT 201500Z 16005MPS CAVOK 08/00 Q1014 R25/090070 R16/090070 NOSIG RMK QFE750/1000

VFR

7°C / 0°C

[Viac]
Vietor 160º 8kt
Viditeľnosť >10km
Počasie -
Oblaky Clouds and Visibility OK
Tlak 1014
Zmeniť No Significant change. Runway 25: Clear and dry, 51-100% contamination with <1mm, friction coefficient 0.70. Runway 16: Clear and dry, 51-100% contamination with <1mm, friction coefficient 0.70.
Nespracované UNNT 201430Z 16004MPS CAVOK 07/M00 Q1014 R25/090070 R16/090070 NOSIG RMK QFE750/1000

VFR

7°C / -1°C

[Viac]
Vietor 160º 8kt
Viditeľnosť >10km
Počasie -
Oblaky Clouds and Visibility OK
Tlak 1014
Zmeniť No Significant change. Runway 25: Clear and dry, 51-100% contamination with <1mm, friction coefficient 0.70. Runway 16: Clear and dry, 51-100% contamination with <1mm, friction coefficient 0.70.
Nespracované UNNT 201400Z 16004MPS CAVOK 07/M01 Q1014 R25/090070 R16/090070 NOSIG RMK QFE750/1001

VFR

7°C / -2°C

[Viac]
Vietor 160º 8kt
Viditeľnosť >10km
Počasie -
Oblaky Clouds and Visibility OK
Tlak 1014
Zmeniť No Significant change. Runway 25: Clear and dry, 51-100% contamination with <1mm, friction coefficient 0.70. Runway 16: Clear and dry, 51-100% contamination with <1mm, friction coefficient 0.70.
Nespracované UNNT 201330Z 16004MPS CAVOK 07/M02 Q1014 R25/090070 R16/090070 NOSIG RMK QFE750/1001

Správy TAF pre lokalitu 55.03°S 82.6°V (UNNT)

From till


From till Wind 160º 6kt. Gust 16kt. Visibility 8000m. Scattered Clouds 4000ft.
Temporarly from till Wind 210º 6kt. Gust 16kt. Broken Clouds 4000ft.

Nespracované: TAF UNNT 202300Z 2100/2124 16003G08MPS 8000 SCT040 TEMPO 2103/2112 21003G08MPS BKN040CB

Aktuálne satelitné snímky a snímky zrážok pre lokalitu 55.03°S 82.6°V

Značka polohy je umiestnená na55.03°S 82.6°V. [Viac]

Satelitné snímky zhotovované v reálnom čase využívajú viditeľné svetlo počas dňa a infračervené žiarenie počas noci. Vzhľadom na to, že infračervené žiarenie zisťuje teplotné rozdiely, snímka v noci nie je tmavá. Nízke oblaky a hmlu je, žiaľ, ťažké odlíšiť od prízemných teplôt, preto môžu byť počas noci takmer neviditeľné. Meteosat satelitné snímky pre Európu sú aktualizované v reálnom čase každých 5 minút. Snímky z GOES-16/GOES-17 (Severná a Južná Amerika) a Himawari (Ázia) sú aktualizované každých 10 minút.

Copyright 2021 EUMETSAT / meteoblue. / Copyright 2021 meteoblue

Radar a krátkodobá predpoveď zrážok pre 55.03°S 82.6°V

Mrholenie
Slabý
Mierne
Ťažké
Veľmi ťažké
Krúpy

Značka polohy je umiestnená na 55.03°S 82.6°V. Táto animácia ukazuje zrážky pozorované radarom za poslednú hodinu a tiež 1h predpoveď. Mrholenie alebo slabé sneženie môže byť pre radar neviditeľné. Intenzita zrážok je farebne označená od svetlomodrej po oranžovú.